| time (UTC) | temp C | wind direction | speed KPH | gust KPH | rain 1hr cm | rain 24hr cm | rain mn cm | humidity % | barometer mb |
| 20260510230024 | 11 | 321 | 1.6 | 4.8 | 0.00 | 0.00 | 0.00 | 45 | 1018.1 |
| 20260510224523 | 11 | 321 | 1.6 | 4.8 | 0.00 | 0.00 | 0.00 | 42 | 1018.0 |
| 20260510223018 | 11 | 321 | 1.6 | 4.8 | 0.00 | 0.00 | 0.00 | 42 | 1018.0 |
| 20260510221529 | 11 | 321 | 3.2 | 6.4 | 0.00 | 0.00 | 0.00 | 41 | 1017.8 |
| 20260510220018 | 12 | 324 | 1.6 | 6.4 | 0.00 | 0.00 | 0.00 | 42 | 1017.8 |
| 20260510214518 | 12 | 324 | 0.0 | 6.4 | 0.00 | 0.00 | 0.00 | 46 | 1017.7 |
| 20260510213018 | 12 | 324 | 1.6 | 6.4 | 0.00 | 0.00 | 0.00 | 39 | 1017.5 |
| 20260510211519 | 12 | 311 | 0.0 | 4.8 | 0.00 | 0.00 | 0.00 | 44 | 1017.4 |
| 20260510210018 | 12 | 311 | 0.0 | 6.4 | 0.00 | 0.00 | 0.00 | 45 | 1017.5 |
| 20260510204519 | 11 | 333 | 1.6 | 4.8 | 0.00 | 0.00 | 0.00 | 46 | 1017.6 |
| 20260510203019 | 11 | 333 | 0.0 | 6.4 | 0.00 | 0.00 | 0.00 | 54 | 1017.6 |
| 20260510201551 | 11 | 333 | 1.6 | 4.8 | 0.00 | 0.00 | 0.00 | 62 | 1017.7 |
| 20260510200050 | 10 | 333 | 3.2 | 8.0 | 0.00 | 0.00 | 0.00 | 59 | 1017.8 |
| 20260510194551 | 10 | 44 | 1.6 | 6.4 | 0.00 | 0.38 | 0.00 | 59 | 1018.0 |
| 20260510193050 | 10 | 33 | 3.2 | 11.3 | 0.00 | 0.38 | 0.00 | 59 | 1018.3 |
| 20260510191555 | 10 | 360 | 4.8 | 14.5 | 0.00 | 0.38 | 0.00 | 60 | 1018.2 |
| 20260510190054 | 10 | 340 | 4.8 | 14.5 | 0.00 | 0.38 | 0.00 | 60 | 1018.1 |
| 20260510184550 | 10 | 23 | 4.8 | 11.3 | 0.00 | 0.38 | 0.00 | 62 | 1017.9 |
| 20260510183056 | 10 | 300 | 3.2 | 12.9 | 0.00 | 0.38 | 0.00 | 58 | 1017.7 |
| 20260510181555 | 11 | 16 | 3.2 | 11.3 | 0.00 | 0.38 | 0.00 | 59 | 1017.6 |
| 20260510180049 | 10 | 1 | 3.2 | 9.7 | 0.00 | 0.38 | 0.00 | 60 | 1017.5 |
| 20260510174550 | 10 | 332 | 4.8 | 9.7 | 0.00 | 0.38 | 0.00 | 62 | 1017.5 |
| 20260510173051 | 10 | 6 | 3.2 | 9.7 | 0.00 | 0.38 | 0.00 | 68 | 1017.6 |
| 20260510171551 | 10 | 360 | 6.4 | 14.5 | 0.00 | 0.38 | 0.00 | 62 | 1017.6 |
| 20260510170051 | 10 | 329 | 3.2 | 12.9 | 0.00 | 0.38 | 0.00 | 58 | 1017.6 |
| 20260510164551 | 10 | 28 | 1.6 | 12.9 | 0.00 | 0.38 | 0.00 | 61 | 1017.6 |
| 20260510163050 | 10 | 30 | 3.2 | 11.3 | 0.00 | 0.38 | 0.00 | 62 | 1017.5 |
| 20260510161550 | 9 | 349 | 1.6 | 11.3 | 0.00 | 0.38 | 0.00 | 57 | 1017.4 |
| 20260510160127 | 9 | 321 | 3.2 | 8.0 | 0.00 | 0.38 | 0.00 | 57 | 1017.3 |
| 20260510154555 | 9 | 320 | 3.2 | 8.0 | 0.00 | 0.38 | 0.00 | 56 | 1017.2 |
| 20260510153050 | 9 | 307 | 3.2 | 9.7 | 0.00 | 0.38 | 0.00 | 59 | 1017.1 |
| 20260510151550 | 9 | 306 | 1.6 | 6.4 | 0.00 | 0.38 | 0.00 | 62 | 1017.1 |
| 20260510150051 | 9 | 311 | 0.0 | 6.4 | 0.00 | 0.38 | 0.00 | 64 | 1016.9 |
| 20260510144551 | 8 | 266 | 3.2 | 6.4 | 0.00 | 0.38 | 0.00 | 66 | 1016.7 |
| 20260510143050 | 8 | 258 | 1.6 | 8.0 | 0.00 | 0.38 | 0.00 | 64 | 1016.4 |
| 20260510141551 | 8 | 257 | 3.2 | 8.0 | 0.00 | 0.38 | 0.00 | 63 | 1016.2 |
| 20260510140055 | 8 | 297 | 4.8 | 6.4 | 0.00 | 0.38 | 0.00 | 64 | 1016.0 |
| 20260510134552 | 8 | 297 | 1.6 | 8.0 | 0.00 | 0.41 | 0.00 | 64 | 1015.6 |
| 20260510133053 | 8 | 297 | 0.0 | 4.8 | 0.00 | 0.41 | 0.00 | 65 | 1015.5 |
| 20260510131553 | 8 | 297 | 1.6 | 6.4 | 0.00 | 0.41 | 0.00 | 66 | 1015.4 |
| 20260510130051 | 7 | 297 | 0.0 | 6.4 | 0.00 | 0.41 | 0.00 | 66 | 1015.2 |
| 20260510124551 | 7 | 298 | 1.6 | 4.8 | 0.00 | 0.41 | 0.00 | 67 | 1015.1 |
| 20260510123052 | 7 | 301 | 0.0 | 4.8 | 0.00 | 0.41 | 0.00 | 70 | 1015.0 |
| 20260510121551 | 7 | 302 | 1.6 | 6.4 | 0.00 | 0.41 | 0.00 | 71 | 1014.9 |
| 20260510120051 | 6 | 302 | 1.6 | 6.4 | 0.00 | 0.41 | 0.00 | 73 | 1014.7 |
| 20260510114552 | 6 | 328 | 1.6 | 9.7 | 0.00 | 0.41 | 0.00 | 77 | 1014.5 |
| 20260510113051 | 5 | 267 | 1.6 | 4.8 | 0.00 | 0.41 | 0.00 | 81 | 1014.2 |
| 20260510111607 | 5 | 266 | 1.6 | 6.4 | 0.00 | 0.41 | 0.00 | 86 | 1014.1 |
| 20260510110052 | 3 | 266 | 0.0 | 6.4 | 0.00 | 0.41 | 0.00 | 91 | 1013.8 |
| 20260510104552 | 1 | 266 | 0.0 | 3.2 | 0.00 | 0.41 | 0.00 | 90 | 1013.7 |
| 20260510103052 | 1 | 308 | 0.0 | 0.0 | 0.00 | 0.41 | 0.00 | 90 | 1013.5 |
| 20260510101553 | 1 | 308 | 0.0 | 1.6 | 0.00 | 0.41 | 0.00 | 88 | 1013.3 |
| 20260510100054 | 2 | 308 | 0.0 | 3.2 | 0.00 | 0.41 | 0.00 | 88 | 1013.2 |
| 20260510094553 | 2 | 308 | 0.0 | 3.2 | 0.00 | 0.41 | 0.00 | 87 | 1012.8 |
| 20260510093104 | 3 | 308 | 0.0 | 1.6 | 0.00 | 0.41 | 0.00 | 85 | 1012.5 |
| 20260510091552 | 4 | 308 | 0.0 | 4.8 | 0.00 | 0.41 | 0.00 | 85 | 1012.1 |
| 20260510090107 | 4 | 308 | 0.0 | 4.8 | 0.00 | 0.41 | 0.00 | 84 | 1011.9 |
| 20260510084552 | 4 | 308 | 0.0 | 3.2 | 0.00 | 0.41 | 0.00 | 83 | 1011.5 |
| 20260510083106 | 5 | 308 | 0.0 | 4.8 | 0.00 | 0.41 | 0.00 | 82 | 1011.3 |
| 20260510081607 | 5 | 308 | 0.0 | 3.2 | 0.00 | 0.41 | 0.00 | 81 | 1011.1 |
| 20260510080055 | 5 | 306 | 0.0 | 6.4 | 0.00 | 0.41 | 0.00 | 80 | 1011.0 |
| 20260510074558 | 5 | 321 | 0.0 | 3.2 | 0.00 | 0.41 | 0.00 | 80 | 1010.7 |
| 20260510073053 | 5 | 321 | 0.0 | 4.8 | 0.00 | 0.41 | 0.00 | 78 | 1010.5 |
| 20260510071553 | 5 | 321 | 3.2 | 12.9 | 0.00 | 0.41 | 0.00 | 77 | 1010.5 |
| 20260510070054 | 5 | 1 | 3.2 | 9.7 | 0.00 | 0.41 | 0.00 | 79 | 1010.3 |
| 20260510064603 | 5 | 13 | 1.6 | 8.0 | 0.00 | 0.41 | 0.00 | 79 | 1010.2 |
| 20260510063053 | 5 | 346 | 3.2 | 11.3 | 0.00 | 0.41 | 0.00 | 78 | 1010.0 |
| 20260510061556 | 6 | 23 | 3.2 | 14.5 | 0.00 | 0.41 | 0.00 | 77 | 1010.0 |
| 20260510060052 | 6 | 26 | 3.2 | 14.5 | 0.00 | 0.41 | 0.00 | 77 | 1010.0 |
| 20260510054553 | 6 | 23 | 3.2 | 16.1 | 0.00 | 0.41 | 0.00 | 77 | 1009.9 |
| 20260510053053 | 6 | 1 | 4.8 | 14.5 | 0.00 | 0.41 | 0.00 | 78 | 1009.8 |
| 20260510051557 | 6 | 338 | 4.8 | 16.1 | 0.00 | 0.41 | 0.00 | 78 | 1009.7 |
| 20260510050053 | 6 | 280 | 6.4 | 19.3 | 0.00 | 0.41 | 0.00 | 78 | 1009.4 |
| 20260510044627 | 6 | 1 | 3.2 | 12.9 | 0.00 | 0.41 | 0.00 | 78 | 1009.2 |
| 20260510043053 | 6 | 15 | 4.8 | 16.1 | 0.00 | 0.41 | 0.00 | 77 | 1008.9 |
| 20260510041554 | 7 | 24 | 3.2 | 20.9 | 0.00 | 0.41 | 0.00 | 75 | 1008.8 |
| 20260510040054 | 7 | 24 | 3.2 | 12.9 | 0.00 | 0.41 | 0.00 | 74 | 1008.6 |
| 20260510034553 | 8 | 49 | 3.2 | 11.3 | 0.00 | 0.41 | 0.41 | 80 | 1008.0 |
| 20260510033059 | 8 | 359 | 1.6 | 12.9 | 0.00 | 0.41 | 0.41 | 80 | 1007.9 |
| 20260510031557 | 8 | 4 | 0.0 | 9.7 | 0.00 | 0.41 | 0.41 | 82 | 1007.2 |
| 20260510030053 | 8 | 326 | 1.6 | 9.7 | 0.00 | 0.41 | 0.41 | 82 | 1007.7 |
| 20260510024554 | 8 | 300 | 3.2 | 8.0 | 0.00 | 0.41 | 0.41 | 82 | 1007.6 |
| 20260510023054 | 8 | 1 | 0.0 | 3.2 | 0.00 | 0.41 | 0.41 | 82 | 1006.4 |
| 20260510021554 | 8 | 1 | 0.0 | 4.8 | 0.00 | 0.41 | 0.41 | 79 | 1006.4 |
| 20260510020054 | 8 | 1 | 0.0 | 6.4 | 0.00 | 0.41 | 0.41 | 80 | 1006.1 |
| 20260510014554 | 8 | 11 | 0.0 | 9.7 | 0.00 | 0.41 | 0.41 | 80 | 1005.7 |
| 20260510013054 | 8 | 13 | 3.2 | 6.4 | 0.00 | 0.41 | 0.41 | 78 | 1005.3 |
| 20260510011558 | 8 | 12 | 1.6 | 14.5 | 0.00 | 0.41 | 0.41 | 77 | 1005.2 |
| 20260510010128 | 10 | 360 | 3.2 | 8.0 | 0.00 | 0.41 | 0.41 | 73 | 1004.7 |
| 20260510004554 | 11 | 330 | 0.0 | 8.0 | 0.00 | 0.41 | 0.41 | 69 | 1004.3 |
| 20260510003057 | 11 | 325 | 3.2 | 9.7 | 0.00 | 0.41 | 0.41 | 68 | 1004.1 |
| 20260510001558 | 11 | 350 | 1.6 | 4.8 | 0.00 | 0.41 | 0.41 | 70 | 1003.6 |
| 20260510000056 | 12 | 350 | 0.0 | 0.0 | 0.00 | 0.41 | 0.41 | 68 | 1003.2 |
| 20260509234623 | 12 | 350 | 0.0 | 0.0 | 0.00 | 0.41 | 0.41 | 69 | 1002.9 |
| 20260509233055 | 11 | 350 | 0.0 | 0.0 | 0.00 | 0.41 | 0.41 | 70 | 1002.5 |
| 20260509231555 | 11 | 323 | 0.0 | 11.3 | 0.00 | 0.41 | 0.41 | 69 | 1002.3 |